TimeEDT,TemperatureF,Dew PointF,Humidity,Sea Level PressureIn,VisibilityMPH,Wind Direction,Wind SpeedMPH,Gust SpeedMPH,PrecipitationIn,Events,Conditions,WindDirDegrees,DateUTC
12:53 AM,42.1,26.1,53,30.06,10.0,Calm,Calm,-,N/A,,Clear,0,2013-04-05 04:53:00
1:53 AM,39.9,26.1,58,30.04,10.0,South,4.6,-,N/A,,Clear,170,2013-04-05 05:53:00
2:53 AM,39.0,26.1,60,30.01,10.0,South,3.5,-,N/A,,Clear,180,2013-04-05 06:53:00
3:53 AM,39.9,26.1,58,29.98,10.0,Calm,Calm,-,N/A,,Overcast,0,2013-04-05 07:53:00
4:53 AM,39.9,27.0,60,29.96,6.0,Calm,Calm,-,N/A,,Haze,0,2013-04-05 08:53:00
5:53 AM,39.9,28.0,63,29.94,10.0,Calm,Calm,-,N/A,,Mostly Cloudy,0,2013-04-05 09:53:00
6:53 AM,39.9,28.9,65,29.93,10.0,Calm,Calm,-,N/A,,Overcast,0,2013-04-05 10:53:00
7:53 AM,37.9,28.9,70,29.92,10.0,Calm,Calm,-,N/A,,Clear,0,2013-04-05 11:53:00
8:53 AM,41.0,30.0,65,29.91,10.0,Calm,Calm,-,N/A,,Clear,0,2013-04-05 12:53:00
9:53 AM,46.0,28.0,50,29.88,10.0,West,3.5,-,N/A,,Clear,280,2013-04-05 13:53:00
10:53 AM,51.1,26.1,38,29.85,10.0,NNW,8.1,-,N/A,,Clear,340,2013-04-05 14:53:00
11:53 AM,55.9,19.0,24,29.82,10.0,NW,10.4,18.4,N/A,,Clear,320,2013-04-05 15:53:00
12:53 PM,59.0,14.0,17,29.78,10.0,NW,11.5,18.4,N/A,,Clear,310,2013-04-05 16:53:00
1:53 PM,62.1,15.1,16,29.74,10.0,NNW,8.1,17.3,N/A,,Clear,330,2013-04-05 17:53:00
2:53 PM,64.0,19.9,18,29.72,10.0,WNW,10.4,18.4,N/A,,Clear,290,2013-04-05 18:53:00
3:53 PM,63.0,21.9,21,29.73,10.0,NW,12.7,27.6,N/A,,Clear,320,2013-04-05 19:53:00
4:53 PM,61.0,21.0,21,29.74,10.0,NNW,17.3,25.3,N/A,,Clear,340,2013-04-05 20:53:00
5:53 PM,59.0,18.0,20,29.78,10.0,NNW,11.5,19.6,N/A,,Clear,330,2013-04-05 21:53:00
6:53 PM,57.9,17.1,20,29.81,10.0,NNW,9.2,19.6,N/A,,Clear,330,2013-04-05 22:53:00
7:53 PM,55.0,19.0,24,29.84,10.0,North,9.2,18.4,N/A,,Clear,360,2013-04-05 23:53:00
8:53 PM,51.1,19.9,29,29.90,10.0,North,10.4,17.3,N/A,,Clear,350,2013-04-06 00:53:00
9:53 PM,48.0,21.9,36,29.96,10.0,North,10.4,18.4,N/A,,Clear,350,2013-04-06 01:53:00
10:53 PM,44.1,19.9,38,29.99,10.0,North,8.1,16.1,N/A,,Clear,350,2013-04-06 02:53:00
11:53 PM,42.1,19.0,40,30.01,10.0,NNW,8.1,-,N/A,,Clear,340,2013-04-06 03:53:00